Location: Niles Junction
(37.5763°N, 121.9714°W)
Time: 04:03:33
(UTC+00:00)

Cosmos 1455 - Pass Details

Date: 29 October 2020
Orbit: 500 x 521 km, 82.5° (Epoch: 23 November)

Event Time Altitude Azimuth Distance (km) Brightness Sun altitude
Rises 13:31:57 0° 358° (N) 2,655 5.7 -12.2°
Reaches altitude 10° 13:34:08 10° 3° (N) 1,763 4.8 -11.7°
Maximum altitude 13:37:55 52° 81° (E) 653 3.1 -11.0°
Drops below altitude 10° 13:41:40 10° 158° (SSE) 1,748 5.3 -10.2°
Sets 13:43:50 0° 164° (SSE) 2,630 6.2 -9.8°
